2018-099L (43768 NORAD) Tracking and Keplerian Element Data

This shows tracking and keplerian element data for the satellite.

Feedback or suggestion? Click here.




ElementValue
Catalog43768
Name2018-099L
Epoch Orbit62
Epoch Day343.77750657
Epoch Year2018
RAAN52.8709
Inclination97.7671
Eccentricity0.0010359
Argument of Perigee236.5908
Mean Anonmoly123.4321
Mean Motion14.94415188
Decay Rate-1.42E-06
L11 43768U 18099L 18343.77750657 -.00000142 00000-0 -78607-5 0 9990
L22 43768 97.7671 52.8709 0010359 236.5908 123.4321 14.94415188 628

Live tracking and technical data element details for 2018-099L (NORAD 43768). 2018-099L can be tracked NOW for your location showing map with azimuth and elevation plus other details from your city location.

Track the satellite on the map from your city or location and see movement details for azimuth, elevation, latitude, longitude, range, height, and movement on the map or in text.







IsCatalogInMostPopularTable: catalog: 43768, numindb: 1
Update: records affected: 1



GetName: 43768 2018-099L

Hit Count: updated at: Tue, 11 Dec 2018 02:36:23 GMT